Regional Weather Roundup
Issued by NWS

Home | Current Version | Previous Version | Text Only | Print | Product List | Glossary On
Versions: 1 2 3 4 5 6 7 8 9 10 11 12 13 14 15 16 17 18 19 20 21 22 23 24 25 26 27 28 29 30 31 32 33 34 35 36 37 38 39 40 41 42 43 44 45 46 47 48 49 50
173
ASUS43 KMKX 101211
RWRWI

WISCONSIN REGIONAL WEATHER ROUNDUP
NATIONAL WEATHER SERVICE MILWAUKEE/SULLIVAN WI
600 AM CST SAT DEC 10 2016

NOTE: "FAIR" INDICATES FEW OR NO CLOUDS BELOW 12,000 FEET WITH NO
SIGNIFICANT WEATHER AND/OR OBSTRUCTIONS TO VISIBILITY.

WIZ001-002-006>008-014>016-023>028-101300-
NORTHWEST WISCONSIN

CITY           SKY/WX    TMP DP  RH WIND       PRES   REMARKS
SUPERIOR ARPT  CLOUDY     6  -3  64 NW8       30.49S WCI  -6
6HR MIN TEMP:   6; 6HR MAX TEMP:  10;

ASHLAND        LGT SNOW   7   3  84 W5        30.47R FOG     WCI  -2
6HR MIN TEMP:   5; 6HR MAX TEMP:  10; 6HR PCP: TRACE;

HAYWARD        CLOUDY     8  -2  63 CALM      30.43R
6HR MIN TEMP:   8; 6HR MAX TEMP:  10; 6HR PCP: TRACE;

SIREN          CLOUDY    10   2  69 CALM      30.45S
6HR MIN TEMP:  10; 6HR MAX TEMP:  11;

CUMBERLAND     CLOUDY     9   3  78 NW5       30.42S WCI   0
RICE LAKE      CLOUDY    10   5  77 W7        30.45S WCI   0
6HR MIN TEMP:  10; 6HR MAX TEMP:  12;

CHETEK         FLURRIES  10   5  80 W5        30.44F WCI   2
6HR MIN TEMP:  10; 6HR MAX TEMP:  13;

LADYSMITH      CLOUDY    10   2  69 N5        30.44S WCI   2
6HR MIN TEMP:  10; 6HR MAX TEMP:  13;

EAU CLAIRE     CLOUDY    10   3  73 W7        30.46S WCI  -1
6HR MIN TEMP:  10; 6HR MAX TEMP:  14;

MENOMONIE      CLOUDY    11   3  71 W6        30.47R WCI   2
6HR MIN TEMP:  11; 6HR MAX TEMP:  14;

NEW RICHMOND   CLEAR      3  -1  82 SW3       30.47R
6HR MIN TEMP:   3; 6HR MAX TEMP:  11;

OSCEOLA        MOCLDY     5   1  82 CALM      30.50S
6HR MIN TEMP:   5; 6HR MAX TEMP:  12;

$$

WIZ003>005-009-010-017-018-101300-
NORTH CENTRAL WISCONSIN

CITY           SKY/WX    TMP DP  RH WIND       PRES   REMARKS
MANITOWISH WTR CLOUDY     4  -1  78 W8        30.35S WCI  -9
6HR MIN TEMP:   4; 6HR MAX TEMP:   7;

ARBOR VITAE    CLOUDY     8   0  68 NW5       30.36S WCI   0
6HR MIN TEMP:   8; 6HR MAX TEMP:  11;

WOODRUFF       CLOUDY     8   0  68 NW5       30.36S WCI   0
6HR MIN TEMP:   8; 6HR MAX TEMP:  11;

RHINELANDER    CLOUDY     8  -1  66 W10       30.36S WCI  -6
6HR MIN TEMP:   8; 6HR MAX TEMP:  12;

EAGLE RIVER    CLOUDY     6  -4  65 W7        30.34F WCI  -6
6HR MIN TEMP:   6; 6HR MAX TEMP:   9;

LAND O LAKES   CLOUDY     6   0  75 W7        30.35F WCI  -5
6HR MIN TEMP:   6; 6HR MAX TEMP:   9;

PHILLIPS       CLOUDY     6  -3  67 NW5       30.39R WCI  -3
6HR MIN TEMP:   6; 6HR MAX TEMP:   9;

TOMAHAWK       CLOUDY     8   1  73 NW6       30.39R WCI  -2
6HR MIN TEMP:   8; 6HR MAX TEMP:  11;

MEDFORD        LGT SNOW   9   5  81 N6        30.38S WCI   0
6HR MIN TEMP:   9; 6HR MAX TEMP:  12;

MERRILL        CLOUDY    10   4  75 N6        30.41R WCI   1
6HR MIN TEMP:  10; 6HR MAX TEMP:  14;

$$

WIZ029-030-035-036-043>047-101300-
CENTRAL WISCONSIN

CITY           SKY/WX    TMP DP  RH WIND       PRES   REMARKS
WAUSAU         CLOUDY    11   3  70 W9        30.39S WCI  -2
6HR MIN TEMP:  11; 6HR MAX TEMP:  15; 6HR PCP: TRACE;

MOSINEE        CLOUDY    10   3  72 W9        30.41S WCI  -2
MARSHFIELD     CLOUDY    11   4  73 NW7       30.39F WCI   0
6HR MIN TEMP:  11; 6HR MAX TEMP:  14; 6HR PCP: TRACE;

STEVENS POINT  CLOUDY    11   1  64 NW5       30.42S WCI   3
6HR MIN TEMP:  11; 6HR MAX TEMP:  14;

WAUPACA        MOCLDY    14   9  79 CALM      30.44S
6HR MIN TEMP:  14; 6HR MAX TEMP:  19;

WAUTOMA        PTCLDY    10   7  87 W6        30.46S WCI   0
6HR MIN TEMP:  10; 6HR MAX TEMP:  15; 6HR PCP:  0.06;

WISC RAPIDS    FLURRIES  10   8  92 W7        30.44S WCI  -1
6HR MIN TEMP:  10; 6HR MAX TEMP:  16; 6HR PCP: TRACE;

CAMP DOUGLAS   CLEAR      6   2  82 NW5       30.45F WCI  -2
6HR MIN TEMP:   6; 6HR MAX TEMP:  16; 6HR PCP: TRACE;

$$

WIZ011>013-019>022-031-037>040-048>050-101300-
NORTHEAST WISCONSIN

CITY           SKY/WX    TMP DP  RH WIND       PRES   REMARKS
ANTIGO         CLOUDY     9   4  78 NW6       30.36S WCI   0
6HR MIN TEMP:   9; 6HR MAX TEMP:  13;

SHAWANO        CLOUDY    17   7  65 W8        30.43R WCI   7
6HR MIN TEMP:  17; 6HR MAX TEMP:  19;

OCONTO         CLOUDY    17   6  63 W9        30.42S WCI   5
6HR MIN TEMP:  17; 6HR MAX TEMP:  19;

STURGEON BAY   FLURRIES  18   9  68 NW13      30.40S WCI   5
6HR MIN TEMP:  18; 6HR MAX TEMP:  20; 6HR PCP:  0.02;

GREEN BAY      CLOUDY    20   8  60 W10       30.42S WCI   9
6HR MIN TEMP:  19; 6HR MAX TEMP:  20; 6HR PCP: TRACE;

MANITOWOC      FLURRIES  18   9  68 W8        30.44S WCI   8
6HR MIN TEMP:  18; 6HR MAX TEMP:  20; 6HR PCP: TRACE;

APPLETON       PTCLDY    12   7  79 W8        30.41S WCI   1
CLINTONVILLE   CLOUDY    18   5  57 NW12      30.43S WCI   5
OSHKOSH        CLEAR     13   7  77 W5        30.44S WCI   5
6HR MIN TEMP:  13; 6HR MAX TEMP:  19;

$$

WIZ032>034-041-042-053>061-101300-
SOUTHWEST WISCONSIN

CITY           SKY/WX    TMP DP  RH WIND       PRES   REMARKS
LA CROSSE      CLEAR     10   5  80 W6        30.50F WCI   0
6HR MIN TEMP:  10; 6HR MAX TEMP:  18;

SPARTA         PTCLDY     8   6  89 W5        30.48S WCI   0
6HR MIN TEMP:   8; 6HR MAX TEMP:  16;

VIROQUA        PTCLDY     7   2  80 W5        30.43R WCI  -1
6HR MIN TEMP:   7; 6HR MAX TEMP:  15;

BOSCOBEL       CLEAR     15   9  76 S3        30.50F
6HR MIN TEMP:  15; 6HR MAX TEMP:  19;

PRAIRIE DU CHI PTCLDY    13   8  81 CALM      30.51R
6HR MIN TEMP:  13; 6HR MAX TEMP:  19;

PLATTEVILLE    PTCLDY    14  14  99 SW3       30.47F
6HR MIN TEMP:  14; 6HR MAX TEMP:  17;

$$

WIZ056-057-062-063-064-067-068-101300-
SOUTH CENTRAL WISCONSIN

CITY           SKY/WX    TMP DP  RH WIND       PRES   REMARKS
REEDSBURG      PTCLDY    12   8  87 W6        30.46S WCI   2
6HR MIN TEMP:  12; 6HR MAX TEMP:  16;

BARABOO/DELLS  PTCLDY    12   8  84 W3        30.45F
6HR MIN TEMP:  12; 6HR MAX TEMP:  17;

LONE ROCK      CLEAR     16   9  74 W8        30.49F WCI   5
6HR MIN TEMP:  15; 6HR MAX TEMP:  18; 6HR PCP: TRACE;

MINERAL POINT  FLURRIES  14  12  92 W5        30.45S WCI   6
MADISON        FLURRIES  15  11  83 NW3       30.46F
6HR MIN TEMP:  14; 6HR MAX TEMP:  18; 6HR PCP: TRACE;

MIDDLETON      MOCLDY    16  12  86 W6        30.47S WCI   7
6HR MIN TEMP:  15; 6HR MAX TEMP:  19;

WATERTOWN      MOCLDY    14  12  91 SW5       30.46S WCI   6
6HR MIN TEMP:  14; 6HR MAX TEMP:  18;

MONROE         CLOUDY    18  14  86 W8        30.45F WCI   7
JANESVILLE     CLOUDY    19  14  79 W5        30.48F WCI  13
$$

WIZ051-052-058>065-066-070>072-101300-
SOUTHEAST WISCONSIN

CITY           SKY/WX    TMP DP  RH WIND       PRES   REMARKS
MILWAUKEE      PTCLDY    19  11  70 W7        30.48R WCI  10
6HR MIN TEMP:  19; 6HR MAX TEMP:  20;

WAUKESHA       PTCLDY    14  10  85 W7        30.47R WCI   4
MILWAUKEE/TIMM PTCLDY    18  10  73 W6        30.48R WCI   9
RACINE         CLOUDY    17  11  77 W6        30.49S WCI   9
6HR MIN TEMP:  17; 6HR MAX TEMP:  20;

BURLINGTON     PTCLDY    21  18  88 W5        30.48S WCI  14
6HR MIN TEMP:  21; 6HR MAX TEMP:  23;

KENOSHA        MOCLDY    18  12  77 W8        30.48S WCI   8
6HR MIN TEMP:  17; 6HR MAX TEMP:  19;

FOND DU LAC    CLEAR     14   6  70 W7        30.45S WCI   4
6HR MIN TEMP:  14; 6HR MAX TEMP:  18; 6HR PCP: TRACE;

SHEBOYGAN      CLEAR     13   7  77 W7        30.44S WCI   3
6HR MIN TEMP:  13; 6HR MAX TEMP:  17;

WEST BEND      FLURRIES  16  14  93 W5        30.45R WCI   9
JUNEAU         FLURRIES  13   9  85 W7        30.46S WCI   3
6HR MIN TEMP:  12; 6HR MAX TEMP:  15;

$$

LSZ147-162-101300-
LAKE SUPERIOR

STATION/POSITION TIME  TEMP    WIND        PRES    WAVE
                       AIR SEA DIR/SP/G            HT/PER
                 (UTC) (F)     (DEG/KT/KT) (MB)    (FT/S)
DEVILS ISLAND    1200    9     300/ 15/ 19 1033.0R
PORT WING        1140    9     320/ 16/ 20 1031.8F
SAXON HARBOR     1140    8     220/  7/ 10 1031.2S
$$

LMZ867-665-643>646-101300-
LAKE MICHIGAN

STATION/POSITION TIME  TEMP    WIND        PRES    WAVE
                C1F1C2F2C3F3C4F4C5F5C6F6C7F7C8M1C9M2Ca!



USA.gov is the U.S. government's official web portal to all federal, state and local government web resources and services.